[[{"header":{"parameterUnit":"m.s-1","parameterCategory":1,"la1":30.2991,"la2":30.254,"lo1":-89.0895,"lo2":-89.0444,"dy":0.0017,"dx":0.0017,"nx":28,"ny":28,"refTime":"2024-08-09T03:00:00:Z","depth":0,"parameterNumber":2,"parameterNumberName":"U-component_of_WINDS"},"data":[0,0,0,0,0,0,0,0,0,0,0,0,0,0,0,0,0,0,0,0,0,0,0,0,0,0,0,0,0,0,0,0,0,0,0,0,0,0,0,0,0,0,0,0,0,0,0,0,0,0,0,0,0,0,0,0,0,0,0.7725,0.7727,0,0.7968,0.7971,0.7974,0.8009,0.8007,0.8005,0.8003,0.826,0.8269,0.8277,0,0,0,0,0,0,0,0,0,0,0,0,0,0.7296,0.7304,0.7724,0.7727,0.773,0.7968,0.7971,0.7974,0.801,0.8007,0.8004,0.8002,0.8257,0.8268,0.8278,0,0,0,0,0,0,0,0,0,0,0,0,0,0.7505,0.7306,0.7724,0.7777,0.7784,0.7967,0.7971,0.7975,0.801,0.8007,0.8004,0.8001,0.8254,0.8267,0.828,0.843,0,0,0.8321,0.8326,0,0,0,0,0,0,0,0,0.7494,0.7521,0.7766,0.7773,0.7782,0.7955,0.7914,0.8128,0.8011,0.7925,0.8003,0.7999,0.8162,0.8182,0.8236,0.8442,0.8453,0.8322,0.833,0.8336,0.834,0,0,0,0,0,0,0,0.7479,0.7511,0.7821,0.7769,0.7779,0.779,0.7816,0.7955,0.8059,0.7932,0.7935,0.7963,0.8165,0.8223,0.8242,0.8456,0.8322,0.8333,0.8342,0.8347,0.8797,0.8801,0,0,0,0,0,0,0.7454,0.7499,0.7813,0.7828,0.7626,0.78,0.783,0.7903,0.8058,0.8078,0.7966,0.7964,0.8201,0.8226,0.8251,0.8436,0.8336,0.8348,0.8356,0.8793,0.8798,0.8802,0,0,0,0,0,0,0.7445,0.7482,0.7803,0.7664,0.7706,0.7811,0.7893,0.7909,0.7966,0.8083,0.8103,0.8004,0.82,0.8232,0.8384,0.8446,0.8354,0.8366,0.8789,0.8795,0.88,0.8807,0,0,0,0,0,0,0.7432,0.7478,0.7535,0.7665,0.7713,0.7931,0.7897,0.7916,0.7989,0.7988,0.8125,0.8144,0.82,0.8364,0.8398,0.8462,0.8377,0.8784,0.8791,0.8798,0.8802,0.8813,0.8822,0,0,0,0,0,0.7417,0.7529,0.7537,0.7575,0.7786,0.7934,0.7962,0.8021,0.7993,0.8052,0.8127,0.814,0.8433,0.8379,0.8417,0.8487,0.878,0.8789,0.8798,0.8798,0.8811,0.8822,0,0,0,0,0,0,0.7406,0.7547,0.7558,0.7715,0.7812,0.794,0.8015,0.8033,0.8142,0.8137,0.8208,0.8239,0.8387,0.8453,0.839,0.864,0.8605,0.8621,0.8592,0.8605,0.8615,0.8596,0.8388,0,0,0,0,0,0.7421,0.7527,0.7646,0.7774,0.7821,0.791,0.7977,0.8013,0.8118,0.8159,0.8245,0.8348,0.8463,0.8538,0.865,0.8812,0.8842,0.8878,0.8888,0.8896,0.891,0.8999,0.9017,0.8831,0.8831,0.8831,0,0,0.7455,0.7546,0.7609,0.7774,0.7853,0.7963,0.7944,0.8062,0.8145,0.8178,0.8326,0.8392,0.8512,0.8668,0.8742,0.8728,0.8967,0.8907,0.8912,0.8922,0.901,0.9027,0.9043,0.8837,0.8836,0.8835,0,0,0.7573,0.7652,0.7766,0.7845,0.7964,0.8022,0.8049,0.8174,0.8219,0.8368,0.8395,0.8495,0.8693,0.8776,0.8844,0.8991,0.9008,0.9027,0.9078,0.9165,0.9179,0.9193,0.9245,0.9263,0.904,0.904,0.904,0,0.7601,0.7766,0.7823,0.7939,0.8011,0.8043,0.816,0.8235,0.8386,0.8436,0.8417,0.8663,0.8746,0.8923,0.8958,0.9012,0.9047,0.9011,0.9172,0.9186,0.9199,0.925,0.927,0.9041,0.9041,0.9041,0.9041,0,0.7794,0.7908,0.7986,0.8127,0.8208,0.8324,0.8401,0.8477,0.8506,0.8566,0.8717,0.8817,0.895,0.8995,0.9026,0.9176,0.9163,0.9157,0.9123,0.9217,0.9266,0.9286,0.9043,0.9043,0.9042,0.9042,0,0,0.7913,0.8083,0.8111,0.8175,0.8308,0.8398,0.8516,0.8643,0.8706,0.8809,0.891,0.9075,0.9069,0.9147,0.9188,0.9264,0.9373,0.9249,0.9253,0.9268,0.9544,0.9546,0.9568,0.9384,0.9388,0.9392,0.9533,0,0.8046,0.8254,0.8309,0.8486,0.8592,0.8624,0.8726,0.882,0.8879,0.8979,0.9046,0.9161,0.9146,0.9193,0.9269,0.9343,0.943,0.9334,0.948,0.9485,0.9449,0.9594,0.9598,0.9727,0.9553,0.9556,0.9559,0,0.8229,0.8332,0.8519,0.8637,0.8684,0.8775,0.8895,0.899,0.9097,0.9135,0.9219,0.9253,0.9378,0.9337,0.9511,0.9445,0.9508,0.9553,0.956,0.9576,0.9527,0.9613,0.977,0.9788,0.9589,0.9587,0.9585,0,0.8296,0.8482,0.8618,0.8672,0.8813,0.8876,0.8938,0.9042,0.9114,0.922,0.9268,0.9388,0.9454,0.9547,0.9612,0.9576,0.978,0.9745,0.9816,0.9815,0.9858,0.9855,1.0026,0.9899,0.9899,0.9898,0.9898,0,0.8439,0.8552,0.865,0.8733,0.8861,0.8924,0.9049,0.9113,0.9204,0.9302,0.9338,0.9429,0.9509,0.9612,0.9664,0.98,0.983,0.9865,0.9877,0.9862,0.9857,0.9904,0.9897,0.9904,0.9903,0.9901,0.9901,0,0.8536,0.8605,0.8755,0.8876,0.8908,0.8997,0.9101,0.9184,0.9244,0.9367,0.9399,0.9494,0.9616,0.969,0.9846,0.9881,1.0031,1.004,0.9994,0.9999,1.0066,1.0059,1.0274,1.0305,1.0158,1.0159,1.016,0,0.8622,0.8709,0.8838,0.8904,0.8966,0.9074,0.9147,0.9212,0.9287,0.9414,0.9482,0.9606,0.9708,0.9903,0.9987,1.0106,1.0118,1.0185,1.0136,1.0117,1.0118,1.0112,1.0121,1.0193,1.0195,1.0196,1.0197,0,0.8768,0.8797,0.89,0.9015,0.91,0.9195,0.9289,0.9342,0.9423,0.9506,0.9629,0.9708,0.9866,0.9988,1.0114,1.0181,1.0203,1.0211,1.0234,1.0218,1.0187,1.0204,1.0016,1.0206,1.0205,1.0204,1.0204,1.0204,0.8862,0.8941,0.9043,0.9156,0.9233,0.9319,0.9402,0.9471,0.9574,0.9706,0.9739,0.9868,0.9973,1.0144,1.0213,1.0316,1.0306,1.0339,1.0348,1.0355,1.0355,1.017,1.034,1.0339,1.0339,1.0339,1.0339,0,0.9009,0.9075,0.9179,0.9307,0.9396,0.9406,0.9511,0.9585,0.9698,0.9792,0.9891,1.0033,1.0152,1.0244,1.0366,1.0431,1.0444,1.0461,1.0457,1.0472,1.0358,1.0326,1.0448,1.0448,1.0448,1.0448,1.0448,1.0448,0.9096,0.9228,0.927,0.9441,0.9508,0.9633,0.9692,0.9772,0.9848,1.0003,1.0101,1.0159,1.0253,1.0382,1.0492,1.0516,1.0559,1.0574,1.06,1.0492,1.048,1.0469,1.0439,1.0583,1.0583,1.0705,1.0706,1.0707]},{"header":{"parameterUnit":"m.s-1","parameterCategory":1,"la1":30.2991,"la2":30.254,"lo1":-89.0895,"lo2":-89.0444,"dy":0.0017,"dx":0.0017,"nx":28,"ny":28,"refTime":"2024-08-09T03:00:00:Z","depth":0,"parameterNumber":3,"parameterNumberName":"V-component_of_WINDS"},"data":[0,0,0,0,0,0,0,0,0,0,0,0,0,0,0,0,0,0,0,0,0,0,0,0,0,0,0,0,0,0,0,0,0,0,0,0,0,0,0,0,0,0,0,0,0,0,0,0,0,0,0,0,0,0,0,0,0,0,2.4311,2.4312,0,2.4425,2.4426,2.4427,2.4356,2.4352,2.4349,2.4346,2.4464,2.447,2.4476,0,0,0,0,0,0,0,0,0,0,0,0,0,2.4029,2.4035,2.4311,2.4313,2.4314,2.4425,2.4426,2.4428,2.4356,2.4352,2.4348,2.4344,2.4462,2.4469,2.4477,0,0,0,0,0,0,0,0,0,0,0,0,0,2.4148,2.4037,2.4311,2.4292,2.4291,2.4424,2.4426,2.4428,2.4357,2.4352,2.4347,2.4342,2.4459,2.4468,2.4478,2.4636,0,0,2.4506,2.451,0,0,0,0,0,0,0,0,2.4142,2.4159,2.4293,2.4293,2.4293,2.4371,2.437,2.4498,2.4359,2.4332,2.4346,2.434,2.4437,2.4448,2.448,2.4642,2.4647,2.4507,2.4513,2.4517,2.4519,0,0,0,0,0,0,0,2.4134,2.4154,2.4356,2.4295,2.4295,2.4276,2.4288,2.4394,2.4412,2.4334,2.4329,2.4344,2.4436,2.4471,2.4483,2.4649,2.4507,2.4515,2.4521,2.4525,2.4939,2.4944,0,0,0,0,0,0,2.4127,2.4147,2.4352,2.436,2.4203,2.4286,2.4298,2.4351,2.441,2.4414,2.4348,2.434,2.4458,2.4472,2.4486,2.4671,2.4517,2.4526,2.4531,2.4934,2.494,2.4946,0,0,0,0,0,0,2.4121,2.4146,2.4348,2.4252,2.4276,2.4296,2.4356,2.4356,2.4391,2.442,2.4423,2.4381,2.4454,2.4473,2.4598,2.4674,2.453,2.4538,2.4928,2.4936,2.4943,2.5045,0,0,0,0,0,0,2.4114,2.4144,2.4206,2.4254,2.4282,2.4459,2.4361,2.4362,2.4407,2.4398,2.4452,2.4456,2.4452,2.4584,2.4607,2.4685,2.4546,2.4921,2.4931,2.4941,2.5035,2.5056,2.5073,0,0,0,0,0,2.4104,2.4232,2.421,2.4235,2.4359,2.4463,2.4479,2.4471,2.4414,2.4475,2.4493,2.4455,2.4663,2.4598,2.4623,2.4704,2.4916,2.4928,2.494,2.5026,2.5051,2.5073,0,0,0,0,0,0,2.4194,2.4238,2.4214,2.4361,2.4409,2.4451,2.4528,2.4499,2.4564,2.4553,2.4541,2.4553,2.4682,2.4706,2.4633,2.4858,2.478,2.4798,2.4837,2.4861,2.488,2.487,2.4554,0,0,0,0,0,2.4231,2.4313,2.4347,2.4473,2.4498,2.4509,2.4555,2.4544,2.4593,2.4613,2.464,2.4689,2.4764,2.4815,2.4887,2.5039,2.5046,2.5107,2.5126,2.5141,2.5156,2.5232,2.5257,2.4986,2.4986,2.4986,0,0,2.4309,2.4343,2.4395,2.4492,2.4528,2.461,2.4527,2.462,2.468,2.4627,2.4744,2.4766,2.482,2.4957,2.5019,2.4981,2.5233,2.5157,2.5169,2.5175,2.5247,2.5272,2.5295,2.4994,2.4993,2.4991,0,0,2.4491,2.4527,2.4633,2.467,2.4724,2.4729,2.4755,2.4801,2.4812,2.493,2.489,2.4962,2.5095,2.5132,2.5169,2.536,2.5325,2.5384,2.5483,2.5557,2.5579,2.5597,2.5661,2.5684,2.5399,2.5399,2.5399,0,2.4581,2.4704,2.4692,2.4786,2.4828,2.4782,2.4888,2.4924,2.4999,2.5028,2.4985,2.5145,2.5179,2.5321,2.5367,2.54,2.5426,2.5377,2.5577,2.5595,2.5613,2.5673,2.5697,2.5406,2.5405,2.5404,2.5404,0,2.4808,2.4894,2.4974,2.5044,2.5095,2.5196,2.5197,2.525,2.5234,2.5243,2.5361,2.5399,2.5474,2.5508,2.5495,2.5648,2.5621,2.5578,2.5499,2.5645,2.5701,2.5724,2.5415,2.5412,2.5411,2.5409,0,0,2.5052,2.5112,2.5141,2.5169,2.5224,2.5289,2.5385,2.5458,2.5501,2.5554,2.5631,2.5742,2.57,2.5741,2.5731,2.5797,2.5939,2.5745,2.5745,2.5775,2.6103,2.6132,2.616,2.5917,2.5922,2.5926,2.6097,0,2.5233,2.54,2.539,2.5545,2.5621,2.5577,2.566,2.5701,2.5712,2.5777,2.5789,2.5865,2.5807,2.583,2.5894,2.5909,2.6004,2.5897,2.5986,2.5989,2.597,2.619,2.6222,2.6382,2.6119,2.6123,2.6126,0,2.5468,2.5525,2.5687,2.5724,2.5756,2.5831,2.5893,2.5957,2.6001,2.6004,2.6048,2.6026,2.612,2.604,2.6167,2.6094,2.613,2.6143,2.6148,2.6154,2.6064,2.6196,2.6434,2.6456,2.6161,2.6158,2.6156,0,2.5622,2.5741,2.5851,2.5878,2.5926,2.5978,2.6001,2.604,2.6082,2.6137,2.6164,2.623,2.6265,2.6316,2.6311,2.6254,2.6438,2.6359,2.644,2.644,2.6478,2.6475,2.672,2.6509,2.6508,2.6508,2.6507,0,2.5824,2.5923,2.592,2.5988,2.6097,2.6084,2.6192,2.6209,2.6243,2.6311,2.6279,2.6344,2.6335,2.64,2.6397,2.6499,2.6517,2.6519,2.6516,2.652,2.6519,2.6541,2.6528,2.6514,2.6513,2.6512,2.651,0,2.6014,2.6017,2.6133,2.6168,2.6178,2.6257,2.6285,2.6348,2.6355,2.6441,2.6461,2.6471,2.6545,2.6545,2.6631,2.6628,2.6752,2.6739,2.6736,2.6732,2.681,2.6801,2.7075,2.7108,2.6879,2.6881,2.6883,0,2.6141,2.6215,2.6256,2.6299,2.6324,2.6394,2.6436,2.6425,2.647,2.6523,2.6578,2.6648,2.6704,2.6823,2.6837,2.6901,2.6886,2.6978,2.6896,2.6894,2.6881,2.6875,2.688,2.6993,2.6995,2.6997,2.6999,0,2.6363,2.6359,2.642,2.6481,2.6531,2.6579,2.6623,2.666,2.6653,2.6705,2.6779,2.6821,2.6906,2.6974,2.7034,2.7056,2.7025,2.7025,2.7046,2.7048,2.7042,2.7041,2.6775,2.7018,2.7016,2.7015,2.7014,2.7013,2.6522,2.6584,2.6621,2.6689,2.672,2.6761,2.6819,2.6832,2.6893,2.6959,2.695,2.7031,2.7068,2.7146,2.7172,2.7234,2.7202,2.7234,2.7241,2.7248,2.7254,2.7035,2.7245,2.7245,2.7244,2.7244,2.7244,0,2.6738,2.6758,2.6821,2.6881,2.6934,2.69,2.6946,2.6991,2.7063,2.71,2.7154,2.7236,2.7301,2.7319,2.7381,2.7427,2.7414,2.7443,2.7437,2.7442,2.7282,2.7255,2.7452,2.7452,2.7452,2.7452,2.7452,2.7452,2.6856,2.6958,2.6958,2.7073,2.7093,2.717,2.7198,2.7234,2.7263,2.7356,2.7409,2.742,2.7448,2.7511,2.7568,2.7572,2.7594,2.7628,2.7625,2.7475,2.7454,2.7434,2.7408,2.7634,2.7634,2.7779,2.7781,2.7782]}]]